This is the latest recevied weather packets stored in our database for station/object KO6MEX-13. If no packets are shown the sender has not sent any weather packets the latest 10 day(s).
| Time | Temp. | Humidity | Pressure | Rain* | Wind** | Luminosity | Snow |
|---|---|---|---|---|---|---|---|
| 1777820369 | 13.89° C | 79% | 1017.3 hPa | 0 mm | - | 119 W/m² | - |
| 1777820067 | 13.89° C | 80% | 1017.4 hPa | 0 mm | - | 101 W/m² | - |
| 1777819763 | 13.89° C | 80% | 1017.1 hPa | 0 mm | - | 74 W/m² | - |
| 1777819462 | 13.89° C | 80% | 1017.3 hPa | 0 mm | - | 85 W/m² | - |
| 1777819159 | 13.89° C | 80% | 1017.2 hPa | 0 mm | - | 75 W/m² | - |
| 1777818856 | 13.33° C | 81% | 1017.1 hPa | 0 mm | - | 58 W/m² | - |
| 1777818552 | 13.89° C | 80% | 1017.1 hPa | 0 mm | - | 56 W/m² | - |
| 1777818249 | 13.33° C | 82% | 1017.1 hPa | 0 mm | - | 65 W/m² | - |
| 1777817945 | 13.33° C | 83% | 1016.8 hPa | 0 mm | - | 62 W/m² | - |
| 1777817643 | 13.33° C | 83% | 1016.9 hPa | 0 mm | - | 55 W/m² | - |
| 1777817339 | 12.78° C | 84% | 1016.9 hPa | 0 mm | - | 39 W/m² | - |
| 1777817036 | 12.78° C | 83% | 1016.9 hPa | 0 mm | - | 24 W/m² | - |
| 1777816732 | 12.78° C | 84% | 1016.9 hPa | 0 mm | - | 21 W/m² | - |
| 1777816430 | 12.78° C | 84% | 1016.6 hPa | 0 mm | - | 26 W/m² | - |
| 1777816127 | 12.78° C | 84% | 1016.7 hPa | 0 mm | - | 23 W/m² | - |
| 1777815825 | 12.78° C | 84% | 1016.6 hPa | 0 mm | - | 18 W/m² | - |
| 1777815522 | 12.78° C | 84% | 1016.6 hPa | 0 mm | - | 15 W/m² | - |
| 1777815220 | 12.78° C | 85% | 1016.5 hPa | 0 mm | - | 12 W/m² | - |
| 1777814916 | 12.78° C | 86% | 1016.5 hPa | 0 mm | - | 7 W/m² | - |
| 1777814612 | 12.78° C | 86% | 1016.5 hPa | 0 mm | - | 5 W/m² | - |
| 1777814310 | 12.78° C | 86% | 1016.6 hPa | 0 mm | - | 3 W/m² | - |
| 1777814006 | 12.78° C | 86% | 1016.4 hPa | 0 mm | - | 2 W/m² | - |
| 1777813704 | 12.78° C | 86% | 1016.3 hPa | 0 mm | - | 0 W/m² | - |
| 1777813401 | 12.78° C | 86% | 1016.3 hPa | 0 mm | - | 0 W/m² | - |
| 1777813098 | 12.78° C | 86% | 1016.2 hPa | 0 mm | - | 0 W/m² | - |
* Rain latest hour (hover to see other rain measurements)
** Current wind speed in m/s (hover to see current wind gust speed)